IRIDIUM 144

Last updated on Sun Jun 21 2026 00:03:14 GMT+0000 (Coordinated Universal Time)

1 43249U 18030A 26171.37017809 .00000210 00000+0 67981-4 0 9993 2 43249 86.3961 289.0687 0002142 97.7546 262.3893 14.34218182430592
UTC large
Height (km)
Speed (km/s)
/
Latitude / Longitude
Inclination (degrees)
Orbital Period (minutes)
Azimuth
Elevation
Range (km)
Doppler Factor

Next 0 passes for location: London (51.5072 / 0.1276)

No passes found over London.
IRIDIUM 144